EHI
0 0 0 0 0 0 0 0 0 0 0 0 0 0 0 0 0 0 0 0 0 0 0 0 1 2 3 5 6 6 6 5 4 3 3 3 3 2 2 3 2 2 1 0
0 0 0 0 0 0 0 0 0 0 0 0 0 0 0 0 0 0 0 0 0 0 0 0 0 1 2 4 5 6 5 4 3 3 3 3 2 1 1 2 1 1 0 0
0 0 0 0 0 0 0 0 0 0 0 0 0 0 0 0 0 0 0 0 0 0 0 0 0 0 1 3 4 4 4 3 3 3 3 3 1 0 0 0 0 0 0 0
0 0 0 0 0 0 0 0 0 0 0 0 0 0 0 0 0 0 0 0 0 0 0 0 0 0 1 2 3 3 3 3 3 3 3 2 1 0 0 0 0 0 0 0
0 0 0 0 0 0 0 0 0 0 0 0 0 0 0 0 0 0 0 0 0 0 0 0 0 0 0 1 2 2 2 3 3 3 2 1 0 0 0 0 0 0 0 0
0 0 0 0 0 0 0 0 0 0 0 0 0 0 0 0 0 0 0 0 0 0 0 0 0 0 0 0 1 1 1 1 2 2 1 1 0 0 0 1 1 0 0 0
0 0 0 0 0 0 0 0 0 0 0 0 0 0 0 0 0 0 0 0 0 0 0 0 0 0 0 0 0 0 0 0 0 0 0 0 0 0 0 1 1 0 0 0
0 0 0 0 0 0 0 0 0 0 0 0 0 0 0 0 0 0 0 0 0 0 0 0 0 0 0 0 0 0 0 0 0 0 0 0 0 0 0 0 0 0 0 0
0 0 0 0 0 0 0 0 0 0 0 0 0 0 0 0 0 0 0 0 0 0 0 0 0 0 0 0 0 0 0 0 0 0 0 0 0 0 0 0 0 0 0 0
0 0 0 0 0 0 0 0 0 0 0 0 0 0 0 0 0 0 0 0 0 0 0 0 0 0 0 0 0 0 0 0 0 0 0 0 0 0 0 0 0 0 0 0
0 0 0 0 0 0 0 0 0 0 0 0 0 0 0 0 0 0 0 0 0 0 0 0 0 0 0 0 0 0 0 0 0 0 0 0 0 0 0 0 0 0 0 0
0 0 0 0 0 0 0 0 0 0 0 0 0 0 0 0 0 0 0 0 0 0 0 0 0 0 0 0 0 0 0 0 0 0 0 0 0 0 0 0 0 0 0 0
0 0 0 0 0 0 0 0 0 0 0 0 0 0 0 0 0 0 0 0 0 0 0 0 0 0 0 0 0 0 0 0 0 0 0 0 0 0 0 0 0 0 0 0
0 0 0 0 0 0 0 0 0 0 0 0 0 0 0 0 0 0 0 0 0 0 0 0 0 0 0 0 0 0 0 0 0 0 0 0 0 0 0 0 0 0 0 0
0 0 0 0 0 0 0 0 0 0 0 0 0 0 0 0 0 0 0 0 0 0 0 0 0 0 0 0 0 0 0 0 0 0 0 0 0 0 0 0 0 0 0 0
0 0 0 0 0 0 0 0 0 0 0 0 0 0 0 0 0 0 0 0 0 0 0 0 0 0 0 0 0 0 0 0 0 0 0 0 0 0 0 0 0 0 0 0
0 0 0 0 0 0 0 0 0 0 0 0 0 0 0 0 0 0 0 0 0 0 0 0 0 0 0 0 0 0 0 0 0 0 0 0 0 0 0 0 0 0 0 0
0 0 0 0 0 0 0 0 0 0 0 0 0 0 0 0 0 0 0 0 0 0 0 0 0 0 0 0 0 0 0 0 0 0 0 0 0 0 0 0 0 0 0 0
0 0 0 0 0 0 0 0 0 0 0 0 0 0 0 0 0 0 0 0 0 0 0 0 0 0 0 0 0 0 0 0 0 0 0 0 0 0 0 0 0 0 0 0
0 0 0 0 0 0 0 0 0 0 0 0 0 0 0 0 0 0 0 0 0 0 0 0 0 0 0 0 0 0 0 0 0 0 0 0 0 0 0 0 0 0 0 0
0 0 0 0 0 0 0 0 0 0 0 0 0 0 0 0 0 0 0 0 0 0 0 0 0 0 0 0 0 0 0 0 0 0 0 0 0 0 0 0 0 0 0 0
0 0 0 0 0 0 0 0 0 0 0 0 0 0 0 0 0 0 0 0 0 0 0 0 0 0 0 0 0 0 0 0 0 0 0 0 0 0 0 0 0 0 0 0
0 0 0 0 0 0 0 0 0 0 0 0 0 0 0 0 0 0 0 0 0 0 0 0 0 0 0 0 0 0 0 0 0 0 0 0 0 0 0 0 0 0 0 0
0 0 0 0 0 0 0 0 0 0 0 0 0 0 0 0 0 0 0 0 0 0 0 0 0 0 0 0 0 0 0 0 0 0 0 0 0 0 0 0 0 0 0 0
0 0 0 0 0 0 0 0 0 0 0 0 0 0 0 0 0 0 0 0 0 0 0 0 0 0 0 0 0 0 0 0 0 0 0 0 0 0 0 0 0 0 0 0
0 0 0 0 0 0 0 0 0 0 0 0 0 0 0 0 0 0 0 0 0 0 0 0 0 0 0 0 0 0 0 0 0 0 0 0 0 0 0 0 0 0 0 0
Wind_Speed
1 3 2 5 5 4 3 3 5 6 4 2 5 9 10 6 4 5 5 4 5 5 4 2 1 1 1 1 2 2 3 2 2 2 2 2 2 1 1 1 2 3 4 4
3 3 6 3 2 2 2 3 5 6 3 2 5 9 9 6 5 6 6 5 5 3 3 2 1 0 1 2 2 2 3 3 3 2 3 2 2 2 2 1 2 3 3 4
5 4 2 2 1 2 4 4 4 5 6 3 3 8 7 6 4 4 4 4 3 3 3 2 2 2 2 2 2 2 3 3 3 2 2 2 2 1 0 0 1 1 2 3
2 3 1 2 3 3 4 4 4 3 2 4 1 6 8 5 5 5 5 4 3 3 3 3 3 2 3 3 3 2 3 3 2 3 3 4 3 2 2 2 1 1 2 3
3 2 2 3 4 4 4 2 1 2 2 3 2 3 9 4 5 7 6 4 4 4 3 3 3 3 3 2 2 2 2 2 2 3 4 5 3 2 1 1 2 1 1 1
3 2 2 3 2 2 1 2 3 3 3 3 5 4 8 4 5 6 5 4 4 3 2 2 2 0 0 0 0 1 1 1 2 2 3 4 4 3 3 2 3 2 1 1
3 3 1 1 1 2 3 4 3 4 2 6 2 4 9 6 5 4 4 4 3 2 2 1 1 1 0 0 0 0 1 1 1 2 2 3 4 4 5 4 4 3 2 1
1 5 3 1 3 3 3 6 6 5 5 5 2 6 7 5 4 3 2 2 3 2 2 2 2 2 1 1 1 1 1 1 1 1 2 2 3 3 3 3 3 3 2 2
4 5 3 2 1 5 3 3 4 4 1 3 6 6 7 3 4 4 4 3 4 3 3 2 2 1 1 1 1 1 1 1 1 1 1 1 2 3 3 3 2 2 2 2
4 3 3 2 1 1 3 4 3 3 3 5 5 5 5 4 4 4 4 3 4 4 4 3 2 1 1 1 1 0 0 1 1 1 1 1 1 2 2 3 2 2 1 1
3 3 3 1 3 4 2 2 2 3 3 4 4 7 4 4 3 3 3 3 3 3 4 3 2 1 1 1 0 0 0 1 0 0 0 0 0 1 2 2 2 2 2 2
2 4 2 4 3 2 3 4 4 4 4 4 3 8 4 3 2 2 3 3 3 3 3 3 2 2 1 1 1 1 1 1 1 0 0 0 0 1 2 2 2 2 2 2
4 4 1 3 2 1 1 2 3 3 2 3 4 8 3 3 3 3 3 3 3 3 3 3 3 2 2 1 1 1 1 1 1 1 1 1 1 1 1 2 2 2 2 2
3 3 6 8 6 3 3 3 3 4 3 5 8 9 8 7 6 5 5 4 3 2 2 3 3 2 2 2 1 1 2 1 1 1 1 1 0 0 1 1 2 2 2 2
4 3 4 5 4 3 5 6 6 7 8 8 8 9 10 7 6 5 4 4 4 3 3 2 3 3 2 2 2 1 2 2 1 1 1 1 0 0 0 1 1 2 2 2
3 2 1 3 3 3 5 8 8 9 8 8 8 11 9 6 4 4 5 4 4 4 4 3 3 3 3 2 2 2 2 2 1 1 1 0 1 1 0 0 1 2 2 2
3 3 2 3 3 2 7 9 9 6 6 7 10 11 5 4 5 6 6 5 5 5 4 4 4 4 3 3 2 2 2 2 1 1 0 0 1 1 1 0 1 1 2 2
5 4 2 1 2 6 8 3 6 7 7 7 7 6 5 7 6 6 5 5 5 5 5 4 4 3 3 3 2 2 1 1 1 0 0 0 1 1 1 1 1 1 1 2
5 6 3 2 3 8 8 3 4 5 7 6 8 8 6 4 3 4 3 3 4 5 4 4 3 3 3 2 2 1 1 1 1 1 1 1 1 1 1 1 1 1 1 1
3 4 4 3 3 8 7 3 2 3 6 4 6 7 4 0 2 5 3 2 3 3 2 2 2 2 2 2 2 1 1 1 2 2 2 2 1 2 2 2 1 1 1 2
3 2 4 4 5 10 7 2 3 3 8 3 4 5 4 5 6 5 4 3 3 2 2 2 1 1 2 2 1 1 2 2 3 2 1 1 1 2 2 1 1 1 1 1
8 6 6 5 5 11 3 5 6 8 3 2 3 3 4 5 4 3 3 3 2 2 2 2 1 2 2 2 1 2 2 3 2 1 1 1 1 1 1 1 1 1 1 1
7 9 7 10 10 5 5 7 5 3 3 3 3 4 3 3 4 3 3 3 2 2 2 2 2 2 2 2 1 2 3 2 2 1 1 1 1 1 1 1 1 1 1 2
4 3 4 5 8 6 5 5 4 4 4 4 4 4 3 4 4 4 3 3 3 3 2 2 1 2 2 2 2 2 3 2 1 1 2 1 1 1 1 1 1 2 2 2
6 4 4 6 7 5 6 7 7 5 4 3 3 4 4 4 4 4 4 4 3 3 2 2 2 2 3 3 3 2 2 1 1 2 2 2 1 1 1 1 2 2 3 4
6 8 8 8 7 6 6 5 5 5 5 5 4 4 4 4 5 4 4 4 3 3 2 2 2 2 3 2 3 3 2 2 2 2 2 2 1 1 1 1 2 3 4 5
Wind_Direction
82 88 203 220 205 204 198 221 259 267 271 255 252 266 276 279 271 263 263 262 260 258 271 276 248 188 163 179 182 184 170 167 156 163 158 177 199 193 183 215 185 162 159 157
70 241 238 231 213 229 244 267 276 290 315 289 278 280 276 263 247 245 248 254 254 273 316 316 310 265 206 193 203 202 189 180 185 190 185 182 175 184 184 189 188 169 162 162
180 235 223 166 189 216 246 224 245 273 318 323 306 300 290 290 268 271 265 253 253 235 241 254 256 238 230 212 210 215 203 189 191 187 154 118 101 83 91 215 194 177 166 162
232 265 195 186 223 198 249 231 233 269 310 294 296 289 289 291 300 288 279 271 259 252 250 250 241 237 231 223 216 212 205 189 186 173 167 167 170 182 207 203 196 182 175 170
241 233 199 222 233 190 217 258 251 255 231 292 273 243 284 315 299 287 276 268 256 249 243 249 240 229 227 216 209 207 187 181 188 182 177 173 173 178 165 166 170 174 187 178
255 260 206 213 243 174 158 30 22 36 71 272 234 200 279 270 268 291 282 273 264 259 249 254 268 284 306 5 83 137 163 192 197 184 182 179 174 170 161 179 177 179 192 186
318 301 288 140 76 24 87 86 24 355 338 253 243 211 252 261 270 263 267 283 279 272 260 272 301 350 344 349 295 107 171 216 219 189 194 188 182 179 182 187 182 180 186 202
188 274 251 215 182 187 185 150 164 203 232 275 281 235 253 275 294 294 290 307 314 310 289 249 232 212 201 223 255 235 222 232 229 208 219 193 181 181 186 189 177 184 193 195
183 251 290 270 251 153 158 192 175 151 212 270 265 276 290 317 344 350 355 356 337 323 317 286 263 236 211 226 238 230 224 230 231 228 229 206 193 179 180 176 163 169 181 181
157 235 282 294 36 14 160 148 113 141 189 253 275 264 257 283 306 330 342 332 324 328 330 320 295 285 262 246 266 294 214 215 224 206 217 207 209 177 164 156 159 156 165 171
142 165 291 323 195 194 145 149 157 162 182 193 259 268 235 226 255 284 296 307 310 315 318 317 309 304 313 359 7 16 18 26 345 219 215 163 210 144 138 146 162 166 166 167
154 142 227 254 265 214 178 180 157 175 233 207 226 268 276 250 273 284 290 305 312 317 324 332 338 347 3 0 349 351 351 14 320 270 118 117 91 99 137 154 171 167 162 172
147 132 84 335 324 344 221 204 177 153 153 191 209 261 300 339 338 317 302 303 313 327 336 336 347 352 345 331 331 341 344 338 345 66 84 77 85 107 152 173 173 164 152 146
127 150 184 208 225 203 237 240 197 156 194 225 230 256 288 306 313 312 306 302 304 302 313 331 337 332 333 326 310 315 325 321 343 85 104 108 167 195 182 170 164 163 154 148
117 189 227 252 260 226 228 237 215 208 212 218 243 248 266 270 268 274 281 295 304 298 301 306 315 320 323 331 325 316 315 315 312 121 120 195 212 181 100 127 160 157 154 155
129 179 212 275 263 239 261 253 233 231 229 237 260 267 264 267 264 269 275 279 274 275 279 289 304 313 315 307 303 307 308 303 282 190 187 189 156 143 148 158 154 150 149 138
161 150 157 261 306 350 270 238 216 218 219 203 231 249 272 281 271 261 261 258 254 256 264 270 278 283 290 290 283 280 286 299 285 228 218 197 182 174 203 185 149 171 173 146
157 146 161 226 43 237 244 225 202 218 238 225 245 263 256 255 266 262 250 245 249 252 256 263 270 276 282 286 290 287 300 305 297 286 263 205 185 196 204 178 177 196 174 163
160 150 152 163 232 272 284 254 192 204 257 228 236 260 269 279 306 286 261 244 249 251 253 254 254 260 276 283 286 304 323 312 286 261 248 229 198 213 216 219 220 207 181 190
109 130 145 163 200 241 252 249 182 128 273 248 222 244 251 153 282 272 281 286 280 279 272 268 270 281 277 281 281 296 301 293 276 259 248 240 211 220 230 231 240 243 212 221
144 153 178 190 226 261 257 235 124 173 250 258 219 231 222 216 232 261 287 287 277 276 277 276 268 263 270 277 274 281 292 285 284 278 264 261 239 231 230 232 240 231 227 220
174 173 188 173 208 251 231 150 189 223 250 245 239 232 227 243 265 278 282 284 281 278 283 272 264 277 285 282 268 281 286 293 300 287 267 262 262 250 233 211 235 230 205 205
200 192 187 195 215 233 190 202 223 210 228 242 241 244 225 244 261 271 275 278 276 275 278 282 267 278 289 281 253 268 287 299 296 289 281 272 268 259 233 218 223 235 215 213
245 201 190 237 256 252 244 247 251 235 231 239 238 237 219 235 252 263 269 276 278 279 276 280 264 270 288 297 292 271 276 279 272 271 278 274 258 262 260 241 222 219 220 222
220 185 206 245 265 288 267 244 243 246 241 246 254 243 230 229 246 248 258 268 270 275 274 261 246 254 271 288 296 291 267 246 259 265 265 266 262 254 260 262 241 232 234 226
207 188 195 228 226 217 248 252 238 234 242 239 242 255 249 230 239 248 253 258 260 263 266 267 268 265 273 284 291 290 273 239 232 254 255 250 248 244 243 256 288 270 253 255